Weather in Vasilkovo

Russia / Kirov Oblast     57°43′49″N   48°42′53″E
temp.,
°C
wind,
m/s
gust,
m/s
humid.,
%
clouds,
%
prec.,
mm/h
press.,
hPa
HPBL,
m
15 april, thu
thu1500:00+6s24925 0.0 102272
03:00+6s24935 0.0 102157
06:00+5s2410099 0.0 102083
09:00+9s249780 0.2 1020155
12:00+14ssw237952 0.3 1019388
15:00+13n2391100 0.4 1020140
18:00+8nne61291100 0.0 1022484
21:00+6ne51284100 0.0 1025543
16 april, fri
fri1600:00+5ne5127887 0.0 1026556
03:00+3ne4128329 0.0 1027517
06:00+2ne5137424 0.0 1028550
09:00+6ene59566 0.0 1029716
12:00+9ene56475 0.0 10291029
15:00+10ene46440 0.0 10291135
18:00+7ne36620 0.0 1029165
21:00+3ne38760 0.0 1030153
17 april, sat
sat1700:00+2ne36770 0.0 1030117
03:00+1ne23780 0.0 103158
06:00+2ne26760 0.0 1031151
09:00+7ne24540 0.0 1031666
12:00+10nne33455 0.0 10301391
15:00+10nne34455 0.0 10291551
18:00+8nnw22625 0.0 102845
21:00+5n22755 0.0 102833
18 april, sun
sun1800:00+3n23795 0.0 102843
03:00+2n27835 0.0 1027127
06:00+2n27825 0.0 1027214
09:00+7nne46635 0.0 1027834
12:00+7ne5661100 0.0 10281440
15:00+8ne564128 0.0 10281673
18:00+5ne49455 0.0 1030792
21:00+2ne411545 0.0 1032488
19 april, mon
mon1900:000ene411590 0.0 1033456
03:00−1ene410610 0.0 1035418
06:000ene49615 0.0 1036542
09:00+3e57405 0.0 10361479
12:00+6e56330 0.0 10361735
15:00+6e45322 0.0 10351738
18:00+5ene36430 0.0 1035233
21:00+1ene23565 0.0 103636